Powrót do katalogu

COSMOS 2251 DEB

AktywnyLEO
NORAD 37280·DEBRIS·🇷🇺 Russia

Wystrzelony Jun 16, 1993 z Plesetsk Cosmodrome

Loading…

Następne Przeloty (najbliższe 24 godziny)

TLE

Starzejące sięSource: Space-Track

Epoka: Sep 12, 2026, 08:33 UTC

1 37280U 93036BHU 26255.35675638  .00001360  00000-0  58989-3 0  9996
2 37280  74.0277 287.3327 0132691 348.4592  11.3516 14.20545571612075

Śledź COSMOS 2251 DEB w czasie rzeczywistym z AllMySat

Download on the App Store